Location: Piotrkow Trybunalski
(51.4000°N, 19.6830°E)
Time: 18:05:23
(UTC+01:00)

Explorer 7 - Pass Details

Date: 30 January 2023
Orbit: 478 x 657 km, 50.3° (Epoch: 19 March)

Event Time Altitude Azimuth Distance (km) Brightness Sun altitude
Rises 17:19:51 0° 280° (W) 2,870 11.7 -8.4°
Reaches altitude 10° 17:22:07 10° 276° (W) 1,991 10.9 -8.8°
Maximum altitude 17:26:39 60° 198° (SSW) 737 7.6 -9.4°
Drops below altitude 10° 17:31:20 10° 119° (ESE) 2,061 9.3 -10.1°
Enters shadow 17:32:24 - 117° (ESE) 2,465 9.7 -10.3°
